Regional Weather Roundup
Issued by NWS

Home | Current Version | Previous Version | Graphics & Text | Print | Product List | Glossary Off
Versions: 1 2 3 4 5 6 7 8 9 10 11 12 13 14 15 16 17 18 19 20 21 22 23 24 25 26 27 28 29 30 31 32 33 34 35 36 37 38 39 40 41 42 43 44 45 46 47 48 49 50

000
ASUS43 KMKX 232000
RWRWI

WISCONSIN REGIONAL WEATHER ROUNDUP
NATIONAL WEATHER SERVICE MILWAUKEE/SULLIVAN WI
300 PM CDT FRI JUN 23 2017

NOTE: "FAIR" INDICATES FEW OR NO CLOUDS BELOW 12,000 FEET WITH NO
SIGNIFICANT WEATHER AND/OR OBSTRUCTIONS TO VISIBILITY.

WIZ001-002-006>008-014>016-023>028-232100-
NORTHWEST WISCONSIN

CITY           SKY/WX    TMP DP  RH WIND       PRES   REMARKS
SUPERIOR ARPT  NOT AVBL
ASHLAND        PTSUNNY   68  49  50 W12G23    29.70S
HAYWARD        CLOUDY    66  48  52 VRB5G16   29.74S
SIREN          CLOUDY    67  49  51 NW13      29.78R
CUMBERLAND     CLOUDY    64  48  55 NW15G21   29.78R
RICE LAKE      CLOUDY    67  48  50 W18G25    29.79R
CHETEK         CLOUDY    68  52  55 NW10G23   29.76R
LADYSMITH      PTSUNNY   70  52  53 NW14G20   29.76R
EAU CLAIRE     CLOUDY    69  51  52 NW15      29.75S
MENOMONIE      CLOUDY    69  50  50 W20G25    29.78R
NEW RICHMOND   CLOUDY    71  50  47 NW15      29.79S
OSCEOLA        CLOUDY    70  49  47 NW14G21   29.81S
$$

WIZ003>005-009-010-017-018-232100-
NORTH CENTRAL WISCONSIN

CITY           SKY/WX    TMP DP  RH WIND       PRES   REMARKS
MANITOWISH WTR CLOUDY    63  48  57 NW17      29.71R
ARBOR VITAE    PTSUNNY   66  49  54 NW9G20    29.70R
WOODRUFF       PTSUNNY   66  49  54 NW9G20    29.70R
RHINELANDER    CLOUDY    68  52  56 W10       29.70S
EAGLE RIVER    PTSUNNY   66  46  47 NW16      29.69R
LAND O LAKES   MOSUNNY   66  46  46 NW13G21   29.70R
PHILLIPS       CLOUDY    66  50  55 W9        29.71S
TOMAHAWK       NOT AVBL
MEDFORD        CLOUDY    67  53  59 W13G21    29.72F
MERRILL        MOSUNNY   70  51  50 NW15G24   29.70F
$$

WIZ029-030-035-036-043>047-232100-
CENTRAL WISCONSIN

CITY           SKY/WX    TMP DP  RH WIND       PRES   REMARKS
WAUSAU         PTSUNNY   70  51  51 W18G25    29.69S
MOSINEE        PTSUNNY   68  52  56 W15G21    29.72S
MARSHFIELD     CLOUDY    67  51  56 W15G23    29.73R
STEVENS POINT  CLOUDY    69  50  50 NW14G22   29.71R
WAUPACA        MOSUNNY   78  48  34 W14G24    29.69R
WAUTOMA        MOSUNNY   77  52  41 W20G28    29.70R
WISC RAPIDS    LGT RAIN  74  53  48 NW16G23   29.73R
CAMP DOUGLAS   NOT AVBL
$$

WIZ011>013-019>022-031-037>040-048>050-232100-
NORTHEAST WISCONSIN

CITY           SKY/WX    TMP DP  RH WIND       PRES   REMARKS
ANTIGO         CLOUDY    67  51  55 NW16      29.70R
SHAWANO        MOSUNNY   78  49  36 W12G22    29.64S
OCONTO         MOSUNNY   78  49  36 W13G21    29.61S
STURGEON BAY     N/A     77  51  40 W13G21      N/A
GREEN BAY      MOSUNNY   77  53  43 W18G26    29.65R
MANITOWOC      NOT AVBL
APPLETON       PTSUNNY   75  46  35 W18G26    29.66S
CLINTONVILLE   PTSUNNY   77  46  33 W18G24    29.66S
OSHKOSH        MOSUNNY   77  52  41 W14G24    29.65F
$$

WIZ032>034-041-042-053>061-232100-
SOUTHWEST WISCONSIN

CITY           SKY/WX    TMP DP  RH WIND       PRES   REMARKS
LA CROSSE      CLOUDY    73  53  49 NW14      29.77R
SPARTA         PTSUNNY   73  53  50 NW14G23   29.76R
VIROQUA        PTSUNNY   70  55  58 NW16G24   29.78R
BOSCOBEL       MOSUNNY   76  54  46 W17G24    29.76R
PRAIRIE DU CHI PTSUNNY   73  52  47 W16G28    29.78R
PLATTEVILLE    SUNNY     78  53  42 W17       29.76R
$$

WIZ056-057-062-063-064-067-068-232100-
SOUTH CENTRAL WISCONSIN

CITY           SKY/WX    TMP DP  RH WIND       PRES   REMARKS
REEDSBURG      PTSUNNY   75  54  47 NW13G23   29.72S
BARABOO/DELLS  MOSUNNY   75  50  41 NW12G23   29.72S
LONE ROCK      NOT AVBL
MINERAL POINT  SUNNY     77  48  36 W21G26    29.74S
MADISON        MOSUNNY   78  54  43 NW13G20   29.69F
MIDDLETON      MOSUNNY   78  54  42 W14       29.71F
WATERTOWN      PTSUNNY   78  54  43 W14G21    29.69S
MONROE         SUNNY     79  46  31 W17G26    29.72F
JANESVILLE     PTSUNNY   81  52  36 W12G17    29.70F HX  80
$$

WIZ051-052-058>065-066-070>072-232100-
SOUTHEAST WISCONSIN

CITY           SKY/WX    TMP DP  RH WIND       PRES   REMARKS
MILWAUKEE      MOSUNNY   82  46  28 NW17G24   29.68F HX  80
WAUKESHA       SUNNY     75  46  35 W13G22    29.70F
MILWAUKEE/TIMM MOSUNNY   79  41  25 W18       29.69S
RACINE         SUNNY     81  44  27 NW12      29.70F HX  80
KENOSHA        SUNNY     79  47  32 NW16G22   29.70F
FOND DU LAC    MOSUNNY   78  51  38 W16G28    29.66F
SHEBOYGAN      MOSUNNY   78  56  46 W21       29.66S
WEST BEND      PTSUNNY   77  45  31 W17G23    29.68S
JUNEAU         SUNNY     76  50  41 W16G24    29.70S
$$

LSZ147-162-232100-
LAKE SUPERIOR

STATION/POSITION TIME  TEMP    WIND        PRES    WAVE
                       AIR SEA DIR/SP/G            HT/PER
                 (UTC) (F)     (DEG/KT/KT) (MB)    (FT/S)
W MID LAKE BUOY  1850   46 39  250/ 14/ 16 1004.0R   2/ 4
DEVILS ISLAND    1900   56     240/ 15/ 17 1004.9R
SAXON HARBOR     1940   65     310/ 12/ 19 1005.4R
$$

LMZ867-665-643>646-232100-
LAKE MICHIGAN

STATION/POSITION TIME  TEMP    WIND        PRES    WAVE
                       AIR SEA DIR/SP/G            HT/PER
                 (UTC) (F)     (DEG/KT/KT) (MB)    (FT/S)
CHAMBERS ISLAND  1940   76     240/  8/ 15 1002.4S
S GREEN BAY BUOY 1930   73     260/ 16/ 17 1002.9F
N MID LAKE BUOY  1850   61 57  200/ 10/ 10 1003.0F   1
NORTHPORT PIER   1940   78     280/  6/ 13 1002.0S
KEWAUNEE LAKESHO 1930   77     270/ 13/ 18 1003.2R
SHEBOYGAN LAKESH 1900   77     290/ 18/ 21 1003.7S
PORT WASHINGTON  1930   81     280/  9/ 16 1005.4S
ATWATER BUOY     1809   70 60  300/ 10/ 14 1005.5S
MILWAUKEE LAKESH 1930   77     320/ 10/ 13   N/A
S MID LAKE BUOY  1850   64 62  260/  6/  6 1005.6R   1
KENOSHA   LAKESH 1900   76     330/ 14/ 16 1005.4
$$

TC  - TEMPERATURE IN CELSIUS
VSB - VISIBILITY IN STATUTE MILES
WCI - WIND CHILL INDEX
HX  - HEAT INDEX





USA.gov is the U.S. government's official web portal to all federal, state and local government web resources and services.